| time (UTC) | temp F | wind direction | speed knots | gust knots | rain 1hr in | rain 24hr in | rain mn in | humidity % | barometer mb |
| 20260505124533 | 81 | 101 | 0.9 | 5.2 | 0.00 | 0.00 | 0.00 | 34 | 1004.9 |
| 20260505123046 | 80 | 115 | 0.9 | 3.5 | 0.00 | 0.00 | 0.00 | 32 | 1005.1 |
| 20260505121533 | 80 | 132 | 0.0 | 3.5 | 0.00 | 0.00 | 0.00 | 36 | 1005.4 |
| 20260505120036 | 80 | 72 | 0.0 | 4.3 | 0.00 | 0.00 | 0.00 | 39 | 1005.6 |
| 20260505114527 | 79 | 119 | 0.0 | 3.5 | 0.00 | 0.00 | 0.00 | 40 | 1005.8 |
| 20260505113019 | 78 | 63 | 0.9 | 3.5 | 0.00 | 0.00 | 0.00 | 41 | 1006.1 |
| 20260505111519 | 78 | 96 | 0.0 | 5.2 | 0.00 | 0.00 | 0.00 | 40 | 1006.2 |
| 20260505101507 | 75 | 88 | 0.0 | 4.3 | 0.00 | 0.00 | 0.00 | 44 | 1007.0 |
| 20260505100002 | 74 | 214 | 0.9 | 4.3 | 0.00 | 0.00 | 0.00 | 46 | 1007.1 |
| 20260505094607 | 73 | 96 | 0.0 | 4.3 | 0.00 | 0.00 | 0.00 | 46 | 1007.5 |
| 20260505093056 | 73 | 134 | 0.0 | 6.1 | 0.00 | 0.00 | 0.00 | 46 | 1007.6 |
| 20260505091552 | 71 | 161 | 0.0 | 3.5 | 0.00 | 0.00 | 0.00 | 48 | 1007.7 |
| 20260505090058 | 71 | 121 | 0.0 | 3.5 | 0.00 | 0.00 | 0.00 | 48 | 1007.9 |
| 20260505084544 | 70 | 125 | 0.9 | 3.5 | 0.00 | 0.00 | 0.00 | 48 | 1007.9 |
| 20260505083042 | 70 | 69 | 0.0 | 2.6 | 0.00 | 0.00 | 0.00 | 48 | 1007.9 |
| 20260505081544 | 69 | 69 | 0.0 | 2.6 | 0.00 | 0.00 | 0.00 | 49 | 1008.2 |
| 20260505080047 | 67 | 98 | 0.9 | 3.5 | 0.00 | 0.00 | 0.00 | 51 | 1008.3 |
| 20260505074530 | 67 | 98 | 0.0 | 2.6 | 0.00 | 0.00 | 0.00 | 51 | 1008.4 |
| 20260505073036 | 67 | 82 | 0.0 | 2.6 | 0.00 | 0.00 | 0.00 | 50 | 1008.5 |
| 20260505071526 | 67 | 96 | 0.0 | 1.7 | 0.00 | 0.00 | 0.00 | 50 | 1008.5 |
| 20260505070024 | 66 | 47 | 0.0 | 2.6 | 0.00 | 0.00 | 0.00 | 51 | 1008.5 |
| 20260505064520 | 66 | 35 | 0.0 | 1.7 | 0.00 | 0.00 | 0.00 | 51 | 1008.7 |
| 20260505063016 | 65 | 24 | 0.0 | 0.9 | 0.00 | 0.00 | 0.00 | 55 | 1008.7 |
| 20260505061516 | 62 | 317 | 0.0 | 0.0 | 0.00 | 0.00 | 0.00 | 60 | 1008.7 |
| 20260505060015 | 60 | 317 | 0.0 | 0.9 | 0.00 | 0.00 | 0.00 | 64 | 1008.8 |
| 20260505054507 | 57 | 317 | 0.0 | 0.9 | 0.00 | 0.00 | 0.00 | 68 | 1008.8 |
| 20260505053002 | 55 | 316 | 0.0 | 0.0 | 0.00 | 0.00 | 0.00 | 71 | 1008.8 |
| 20260505051501 | 54 | 316 | 0.0 | 0.0 | 0.00 | 0.00 | 0.00 | 74 | 1008.9 |
| 20260505050127 | 53 | 316 | 0.0 | 0.0 | 0.00 | 0.00 | 0.00 | 74 | 1008.8 |
| 20260505041605 | 51 | 316 | 0.0 | 0.9 | 0.00 | 0.00 | 0.00 | 75 | 1008.6 |
| 20260505040058 | 51 | 306 | 0.0 | 0.0 | 0.00 | 0.00 | 0.00 | 76 | 1008.5 |
| 20260505034548 | 51 | 306 | 0.0 | 0.0 | 0.00 | 0.00 | 0.00 | 74 | 1008.5 |
| 20260505033048 | 52 | 306 | 0.0 | 0.0 | 0.00 | 0.00 | 0.00 | 73 | 1008.6 |
| 20260505031547 | 53 | 306 | 0.0 | 0.0 | 0.00 | 0.00 | 0.00 | 73 | 1008.6 |
| 20260505030043 | 53 | 306 | 0.0 | 0.0 | 0.00 | 0.00 | 0.00 | 73 | 1008.6 |
| 20260505024538 | 54 | 306 | 0.0 | 0.0 | 0.00 | 0.00 | 0.00 | 71 | 1008.6 |
| 20260505023043 | 54 | 306 | 0.0 | 0.0 | 0.00 | 0.00 | 0.00 | 70 | 1008.6 |
| 20260505021536 | 54 | 297 | 0.0 | 0.0 | 0.00 | 0.00 | 0.00 | 69 | 1008.8 |
| 20260505020035 | 55 | 297 | 0.0 | 0.0 | 0.00 | 0.00 | 0.00 | 68 | 1009.0 |
| 20260505014534 | 55 | 297 | 0.0 | 0.0 | 0.00 | 0.00 | 0.00 | 68 | 1009.0 |
| 20260505013030 | 55 | 298 | 0.0 | 0.0 | 0.00 | 0.00 | 0.00 | 69 | 1009.1 |
| 20260505011531 | 55 | 298 | 0.0 | 0.0 | 0.00 | 0.00 | 0.00 | 68 | 1009.2 |
| 20260505010027 | 55 | 315 | 0.0 | 0.0 | 0.00 | 0.00 | 0.00 | 67 | 1009.2 |
| 20260505004533 | 56 | 315 | 0.0 | 0.0 | 0.00 | 0.00 | 0.00 | 67 | 1009.4 |
| 20260505003022 | 57 | 315 | 0.0 | 2.6 | 0.00 | 0.00 | 0.00 | 65 | 1009.2 |
| 20260505001520 | 56 | 311 | 0.0 | 0.0 | 0.00 | 0.00 | 0.00 | 65 | 1009.5 |
| 20260505000027 | 57 | 311 | 0.0 | 0.0 | 0.00 | 0.00 | 0.00 | 63 | 1009.6 |
| 20260504234514 | 58 | 311 | 0.0 | 0.0 | 0.00 | 0.00 | 0.00 | 62 | 1009.6 |
| 20260504233012 | 58 | 311 | 0.0 | 0.9 | 0.00 | 0.00 | 0.00 | 61 | 1009.7 |
| 20260504231511 | 58 | 315 | 0.0 | 0.0 | 0.00 | 0.00 | 0.00 | 61 | 1009.7 |
| 20260504230015 | 58 | 315 | 0.0 | 0.0 | 0.00 | 0.00 | 0.00 | 61 | 1009.8 |
| 20260504224507 | 58 | 315 | 0.0 | 0.0 | 0.00 | 0.00 | 0.00 | 61 | 1009.7 |
| 20260504223006 | 59 | 315 | 0.0 | 1.7 | 0.00 | 0.00 | 0.00 | 60 | 1009.8 |
| 20260504221505 | 60 | 338 | 0.0 | 0.9 | 0.00 | 0.00 | 0.00 | 58 | 1009.8 |
| 20260504220002 | 60 | 294 | 0.0 | 0.0 | 0.00 | 0.00 | 0.00 | 58 | 1009.8 |
| 20260504214604 | 60 | 294 | 0.0 | 0.0 | 0.00 | 0.00 | 0.00 | 57 | 1009.8 |
| 20260504213141 | 61 | 294 | 0.0 | 0.9 | 0.00 | 0.00 | 0.00 | 56 | 1009.8 |
| 20260504211607 | 61 | 146 | 0.0 | 0.0 | 0.00 | 0.00 | 0.00 | 56 | 1009.9 |
| 20260504210100 | 62 | 146 | 0.0 | 0.0 | 0.00 | 0.00 | 0.00 | 53 | 1009.8 |
| 20260504204558 | 64 | 146 | 0.0 | 0.0 | 0.00 | 0.00 | 0.00 | 49 | 1009.8 |
| 20260504203121 | 65 | 146 | 0.0 | 0.0 | 0.00 | 0.00 | 0.00 | 48 | 1009.7 |
| 20260504201558 | 66 | 146 | 0.0 | 0.0 | 0.00 | 0.00 | 0.00 | 46 | 1009.8 |
| 20260504200058 | 66 | 146 | 0.0 | 0.0 | 0.00 | 0.00 | 0.00 | 44 | 1009.8 |
| 20260504194606 | 67 | 146 | 0.0 | 0.0 | 0.00 | 0.00 | 0.00 | 43 | 1009.8 |
| 20260504193109 | 68 | 146 | 0.0 | 0.0 | 0.00 | 0.00 | 0.00 | 42 | 1009.7 |
| 20260504191556 | 69 | 121 | 0.0 | 0.9 | 0.00 | 0.00 | 0.00 | 40 | 1009.7 |
| 20260504190114 | 70 | 111 | 0.0 | 0.9 | 0.00 | 0.00 | 0.00 | 38 | 1009.6 |
| 20260504184605 | 71 | 153 | 0.0 | 0.9 | 0.00 | 0.00 | 0.00 | 38 | 1009.5 |
| 20260504183054 | 72 | 115 | 0.0 | 1.7 | 0.00 | 0.00 | 0.00 | 37 | 1009.6 |
| 20260504181554 | 73 | 80 | 0.0 | 1.7 | 0.00 | 0.00 | 0.00 | 36 | 1009.5 |
| 20260504180054 | 73 | 68 | 0.0 | 1.7 | 0.00 | 0.00 | 0.00 | 35 | 1009.5 |
| 20260504174601 | 75 | 74 | 0.0 | 1.7 | 0.00 | 0.00 | 0.00 | 35 | 1009.6 |
| 20260504173056 | 76 | 67 | 0.0 | 1.7 | 0.00 | 0.00 | 0.00 | 33 | 1009.6 |
| 20260504171552 | 77 | 96 | 0.0 | 2.6 | 0.00 | 0.00 | 0.00 | 32 | 1009.7 |